This demonstration page uses our WeatherBlox Daily Observations layout. Learn more.

Left ArrowRight Arrow

38.20091, -84.87328

Hourly Observations for August 30, 2018

Temp ( °F °C ) Dew Point ( °F °C ) Humidity (%) Winds ( mph kmh ) Pressure ( in mb ) Visibility ( mi km ) Precip ( " mm )
12:53 am 00:53 Clear 72 22.2 69 20.6 91 91 Calm 30.08 1019 10 16 0.00 0.00
1:53 am 01:53 Mostly Cloudy 74 23.3 70 21.1 88 88 SSW 3 6 30.09 1019 10 16 0.00 0.00
2:53 am 02:53 Partly Cloudy 75 23.9 71 21.7 88 88 Calm 30.07 1018 10 16 0.00 0.00
3:53 am 03:53 Cloudy 74 23.3 72 22.2 94 94 SW 3 6 30.07 1018 9 14 0.01 0.25
4:53 am 04:53 Mostly Cloudy 74 23.3 71 21.7 91 91 SW 5 7 30.08 1019 10 16 0.00 0.03
5:53 am 05:53 Mostly Cloudy 73 22.8 71 21.7 94 94 Calm 30.08 1019 10 16 0.00 0.00
6:00 am 06:00 Mostly Cloudy 73 22.8 71 21.7 94 94 Calm 30.09 1019 10 16 0.00 0.00
6:17 am 06:17 Partly Cloudy 74 23.3 71 21.7 91 91 Calm 30.09 1019 10 16 0.00 0.00
6:53 am 06:53 Clear 73 22.8 71 21.7 94 94 NNW 3 6 30.08 1019 8 13 0.00 0.00
7:45 am 07:45 Mostly Cloudy 73 22.8 71 21.7 94 94 SW 6 9 30.09 1019 10 16 0.00 0.00
7:53 am 07:53 Mostly Cloudy 73 22.8 70 21.1 90 90 NNW 5 7 30.10 1019 10 16 0.00 0.00
8:07 am 08:07 Partly Cloudy 73 22.8 71 21.7 94 94 Calm 30.09 1019 10 16 0.00 0.00
8:21 am 08:21 Mostly Sunny 73 22.8 71 21.7 94 94 Calm 30.12 1020 10 16 0.00 0.00
8:53 am 08:53 Sunny 76 24.4 71 21.7 85 85 NNW 7 11 30.11 1020 10 16 0.00 0.00
9:44 am 09:44 Mostly Cloudy 77 25 71 21.7 82 82 NW 5 7 30.12 1020 10 16 0.00 0.00
9:53 am 09:53 Cloudy 77 25 71 21.7 82 82 NW 7 11 30.11 1020 10 16 0.00 0.00
10:24 am 10:24 Partly Cloudy 79 26.1 71 21.7 77 77 Calm 30.12 1020 10 16 0.00 0.00
10:49 am 10:49 Mostly Cloudy 81 27 72 22 74 74 N 3 6 30.12 1020 10 16 0.00 0.00
10:53 am 10:53 Mostly Cloudy 79 26.1 71 21.7 77 77 Calm 30.12 1020 10 16 0.00 0.00
11:53 am 11:53 Cloudy 81 27.2 72 22.2 74 74 VRB 3 6 30.12 1020 10 16 0.00 0.00
12:03 pm 12:03 Cloudy 83 28.3 71 21.7 67 67 NNE 3 6 30.12 1020 10 16 0.00 0.00
12:53 pm 12:53 Mostly Sunny 84 28.9 71 21.7 65 65 N 3 6 30.11 1020 10 16 0.00 0.00
1:12 pm 13:12 Mostly Cloudy 85 29.4 71 21.7 63 63 NW 6 9 30.12 1020 10 16 0.00 0.00
1:21 pm 13:21 Partly Cloudy 84 28.9 71 21.7 65 65 NNE 5 7 30.12 1020 10 16 0.00 0.00
1:36 pm 13:36 Mostly Cloudy 84 28.9 70 21.1 63 63 VRB 5 7 30.09 1019 10 16 0.00 0.00
1:44 pm 13:44 Partly Cloudy 83 28.3 71 21.7 67 67 NW 3 6 30.09 1019 10 16 0.00 0.00
1:53 pm 13:53 Mostly Cloudy 84 28.9 71 21.7 65 65 VRB 6 9 30.09 1019 10 16 0.00 0.00
2:08 pm 14:08 Partly Cloudy 84 28.9 71 21.7 65 65 VRB 3 6 30.09 1019 10 16 0.00 0.00
2:53 pm 14:53 Mostly Sunny 86 30 71 21.7 61 61 ESE 3 6 30.07 1018 10 16 0.00 0.00
3:53 pm 15:53 Mostly Sunny 86 30 70 21.1 59 59 VRB 5 7 30.06 1018 10 16 0.00 0.00
4:53 pm 16:53 Mostly Cloudy 85 29.4 71 21.7 63 63 N 5 7 30.06 1018 10 16 0.00 0.00
5:53 pm 17:53 Partly Cloudy 85 29.4 71 21.7 63 63 NNE 6 9 30.05 1018 10 16 0.00 0.00
6:53 pm 18:53 Sunny 84 28.9 70 21.1 63 63 N 6 9 30.06 1018 10 16 0.00 0.00
7:53 pm 19:53 Sunny 81 27.2 70 21.1 69 69 N 6 9 30.07 1018 10 16 0.00 0.00
8:53 pm 20:53 Clear 78 25.6 70 21.1 76 76 Calm 30.08 1019 10 16 0.00 0.00
9:53 pm 21:53 Clear 75 23.9 70 21.1 84 84 Calm 30.09 1019 10 16 0.00 0.00
10:53 pm 22:53 Clear 74 23.3 69 20.6 85 85 N 3 6 30.09 1019 10 16 0.00 0.00
11:53 pm 23:53 Clear 72 22.2 69 20.6 91 91 Calm 30.10 1019 10 16 0.00 0.00

Powered by AerisWeather